^^
Saratoga-Weather Station Historical Data
Daily Summary for January 30, 2020 Units:  Metric    English   Both
Daily Weekly Monthly Yearly Custom
  High: Low: Average:
Temperature: 3.4 °C -0.7 °C 1.3 °C
Dew Point: -1 °C -6.7 °C -4.1 °C
Humidity: 73% 57% 67%
Wind Speed: 22.5km/h 0km/h 5.6km/h
Wind Gust: 25.7km/h - -
Wind- - SE
Pressure: 1028.8 hPa 1027.8 hPa -
Precipitation: 0.0 mm    
Historical Graphs
 
 
Tabular Data for January 30, 2020
Time Temperature Dew Point Pressure Wind Wind Speed Wind Gust Humidity Rainfall Rate (Hourly) solar
00:01 3.4 °C -1 °C 1027.8 hPa West 9.7 km/h 19.3 km/h 73% 0.0 mm 0 W/m2
00:06 3.4 °C -1 °C 1027.8 hPa NNW 1.4 km/h 12.9 km/h 73% 0.0 mm 0 W/m2
00:12 3.4 °C -1 °C 1027.8 hPa ESE 9.7 km/h 16.1 km/h 73% 0.0 mm 0 W/m2
00:17 3.4 °C -1 °C 1027.8 hPa WSW 3.2 km/h 4.8 km/h 73% 0.0 mm 0 W/m2
00:22 3.4 °C -1 °C 1027.8 hPa West 4.7 km/h 14.5 km/h 73% 0.0 mm 0 W/m2
00:27 3.4 °C -1.2 °C 1027.8 hPa NNE 9.7 km/h 17.7 km/h 72% 0.0 mm 0 W/m2
00:32 3.4 °C -1 °C 1027.8 hPa NNE 1.4 km/h 9.7 km/h 73% 0.0 mm 0 W/m2
00:37 3.4 °C -1 °C 1027.8 hPa East 17.7 km/h 17.7 km/h 73% 0.0 mm 0 W/m2
00:42 3.3 °C -1.3 °C 1027.8 hPa North 7.9 km/h 16.1 km/h 72% 0.0 mm 0 W/m2
00:47 3.3 °C -1.3 °C 1027.8 hPa ESE 3.2 km/h 12.9 km/h 72% 0.0 mm 0 W/m2
00:52 3.3 °C -1.3 °C 1027.8 hPa ENE 6.4 km/h 20.9 km/h 72% 0.0 mm 0 W/m2
00:57 3.3 °C -1.3 °C 1027.8 hPa WNW 3.2 km/h 17.7 km/h 72% 0.0 mm 0 W/m2
01:02 3.2 °C -1.4 °C 1027.8 hPa East 11.1 km/h 14.5 km/h 72% 0.0 mm 0 W/m2
01:07 3.2 °C -1.4 °C 1027.8 hPa SSW 3.2 km/h 6.4 km/h 72% 0.0 mm 0 W/m2
01:12 3.2 °C -1.4 °C 1028.1 hPa SE 14.3 km/h 17.7 km/h 72% 0.0 mm 0 W/m2
01:17 3.2 °C -1.4 °C 1028.1 hPa NNW 3.2 km/h 12.9 km/h 72% 0.0 mm 0 W/m2
01:22 3.2 °C -1.4 °C 1028.1 hPa North 13 km/h 12.9 km/h 72% 0.0 mm 0 W/m2
01:27 3.2 °C -1.4 °C 1028.1 hPa North 6.4 km/h 9.7 km/h 72% 0.0 mm 0 W/m2
01:32 3.1 °C -1.5 °C 1028.1 hPa WSW 1.4 km/h 3.2 km/h 72% 0.0 mm 0 W/m2
01:37 3.1 °C -1.5 °C 1028.1 hPa ENE 6.4 km/h 6.4 km/h 72% 0.0 mm 0 W/m2
01:42 2.9 °C -1.6 °C 1028.1 hPa NE 4.7 km/h 20.9 km/h 72% 0.0 mm 0 W/m2
01:47 2.9 °C -1.6 °C 1028.1 hPa NW 6.4 km/h 12.9 km/h 72% 0.0 mm 0 W/m2
01:52 2.8 °C -1.7 °C 1028.1 hPa NE 6.4 km/h 16.1 km/h 72% 0.0 mm 0 W/m2
01:57 2.8 °C -1.9 °C 1028.1 hPa ESE 6.4 km/h 24.1 km/h 71% 0.0 mm 0 W/m2
02:02 2.8 °C -1.9 °C 1028.1 hPa NNE 4.7 km/h 16.1 km/h 71% 0.0 mm 0 W/m2
02:07 2.8 °C -2.3 °C 1028.1 hPa East 6.4 km/h 20.9 km/h 69% 0.0 mm 0 W/m2
02:12 2.8 °C -2.3 °C 1028.1 hPa East 1.4 km/h 12.9 km/h 69% 0.0 mm 0 W/m2
02:17 2.8 °C -2.3 °C 1028.1 hPa NNW 7.9 km/h 12.9 km/h 69% 0.0 mm 0 W/m2
02:22 2.9 °C -2.6 °C 1028.1 hPa NE 4.7 km/h 14.5 km/h 67% 0.0 mm 0 W/m2
02:27 3 °C -2.5 °C 1028.1 hPa NE 3.2 km/h 12.9 km/h 67% 0.0 mm 0 W/m2
02:32 3 °C -2.7 °C 1028.1 hPa North 4.7 km/h 16.1 km/h 66% 0.0 mm 0 W/m2
02:37 3 °C -2.7 °C 1028.1 hPa ENE 6.4 km/h 16.1 km/h 66% 0.0 mm 0 W/m2
02:42 3.1 °C -2.6 °C 1028.1 hPa East 9.7 km/h 17.7 km/h 66% 0.0 mm 0 W/m2
02:47 3 °C -2.7 °C 1028.1 hPa East 6.4 km/h 11.3 km/h 66% 0.0 mm 0 W/m2
02:52 3 °C -2.7 °C 1028.1 hPa East 3.2 km/h 25.7 km/h 66% 0.0 mm 0 W/m2
02:57 2.9 °C -2.8 °C 1027.8 hPa East 7.9 km/h 12.9 km/h 66% 0.0 mm 0 W/m2
03:02 2.8 °C -2.9 °C 1028.1 hPa East 11.1 km/h 24.1 km/h 66% 0.0 mm 0 W/m2
03:07 2.7 °C -2.8 °C 1027.8 hPa East 4.7 km/h 19.3 km/h 67% 0.0 mm 0 W/m2
03:12 2.7 °C -2.8 °C 1028.1 hPa East 6.4 km/h 22.5 km/h 67% 0.0 mm 0 W/m2
03:17 2.6 °C -3.1 °C 1028.1 hPa ENE 9.7 km/h 19.3 km/h 66% 0.0 mm 0 W/m2
03:22 2.6 °C -3.3 °C 1028.1 hPa East 6.4 km/h 20.9 km/h 65% 0.0 mm 0 W/m2
03:27 2.4 °C -3.7 °C 1028.1 hPa NE 6.4 km/h 16.1 km/h 64% 0.0 mm 0 W/m2
03:32 2.3 °C -3.8 °C 1028.1 hPa ENE 7.9 km/h 20.9 km/h 64% 0.0 mm 0 W/m2
03:37 2.2 °C -3.9 °C 1028.1 hPa SSE 7.9 km/h 12.9 km/h 64% 0.0 mm 0 W/m2
03:42 2.1 °C -4.2 °C 1027.8 hPa ENE 7.9 km/h 20.9 km/h 63% 0.0 mm 0 W/m2
03:47 2 °C -4.3 °C 1028.1 hPa SE 6.4 km/h 19.3 km/h 63% 0.0 mm 0 W/m2
03:52 1.9 °C -4.4 °C 1027.8 hPa ESE 6.4 km/h 16.1 km/h 63% 0.0 mm 0 W/m2
03:57 1.8 °C -4.5 °C 1028.1 hPa ESE 9.7 km/h 11.3 km/h 63% 0.0 mm 0 W/m2
04:02 1.8 °C -4.5 °C 1027.8 hPa NE 4.7 km/h 6.4 km/h 63% 0.0 mm 0 W/m2
04:07 1.7 °C -4.4 °C 1027.8 hPa East 4.7 km/h 17.7 km/h 64% 0.0 mm 0 W/m2
04:12 1.7 °C -4.2 °C 1027.8 hPa SE 3.2 km/h 4.8 km/h 65% 0.0 mm 0 W/m2
04:17 1.6 °C -4.3 °C 1027.8 hPa SSE 1.4 km/h 8 km/h 65% 0.0 mm 0 W/m2
04:22 1.4 °C -4.3 °C 1027.8 hPa ESE 3.2 km/h 16.1 km/h 66% 0.0 mm 0 W/m2
04:27 1.3 °C -4.4 °C 1027.8 hPa West 1.4 km/h 11.3 km/h 66% 0.0 mm 0 W/m2
04:32 1.2 °C -4.4 °C 1027.8 hPa NE 1.4 km/h 6.4 km/h 66% 0.0 mm 0 W/m2
04:37 1.1 °C -4.5 °C 1027.8 hPa WNW 3.2 km/h 9.7 km/h 66% 0.0 mm 0 W/m2
04:42 1 °C -4.6 °C 1028.1 hPa South 3.2 km/h 6.4 km/h 66% 0.0 mm 0 W/m2
04:47 0.9 °C -4.5 °C 1028.1 hPa ENE 3.2 km/h 6.4 km/h 67% 0.0 mm 0 W/m2
04:52 0.8 °C -4.6 °C 1028.1 hPa West 6.4 km/h 14.5 km/h 67% 0.0 mm 0 W/m2
04:57 0.8 °C -4.6 °C 1028.1 hPa ENE 1.4 km/h 8 km/h 67% 0.0 mm 0 W/m2
05:02 0.7 °C -4.7 °C 1028.1 hPa NE 6.4 km/h 14.5 km/h 67% 0.0 mm 0 W/m2
05:07 0.7 °C -4.7 °C 1028.1 hPa WNW 3.2 km/h 6.4 km/h 67% 0.0 mm 0 W/m2
05:12 0.6 °C -4.8 °C 1027.8 hPa NNW 3.2 km/h 14.5 km/h 67% 0.0 mm 0 W/m2
05:17 0.5 °C -4.7 °C 1027.8 hPa North 1.4 km/h 4.8 km/h 68% 0.0 mm 0 W/m2
05:22 0.4 °C -4.8 °C 1028.1 hPa North 4.7 km/h 17.7 km/h 68% 0.0 mm 0 W/m2
05:27 0.4 °C -4.8 °C 1027.8 hPa North 3.2 km/h 9.7 km/h 68% 0.0 mm 0 W/m2
05:32 0.4 °C -4.8 °C 1027.8 hPa East 4.7 km/h 14.5 km/h 68% 0.0 mm 0 W/m2
05:37 0.3 °C -4.9 °C 1028.1 hPa North 3.2 km/h 12.9 km/h 68% 0.0 mm 0 W/m2
05:42 0.3 °C -4.7 °C 1028.1 hPa NNE 6.4 km/h 8 km/h 69% 0.0 mm 0 W/m2
05:47 0.2 °C -4.8 °C 1028.1 hPa Calm   11.3 km/h 69% 0.0 mm 0 W/m2
05:52 0.1 °C -4.9 °C 1027.8 hPa West 9.7 km/h 9.7 km/h 69% 0.0 mm 0 W/m2
05:57 0.1 °C -4.9 °C 1028.1 hPa WSW 3.2 km/h 11.3 km/h 69% 0.0 mm 0 W/m2
06:02 0 °C -4.8 °C 1028.1 hPa West 6.4 km/h 9.7 km/h 70% 0.0 mm 0 W/m2
06:07 -0.1 °C -5.1 °C 1028.1 hPa East 4.7 km/h 8 km/h 69% 0.0 mm 0 W/m2
06:12 -0.1 °C -5.1 °C 1027.8 hPa NW 3.2 km/h 4.8 km/h 69% 0.0 mm 0 W/m2
06:17 -0.1 °C -5.1 °C 1028.1 hPa ENE 7.9 km/h 8 km/h 69% 0.0 mm 0 W/m2
06:22 -0.1 °C -5.1 °C 1028.1 hPa SW 3.2 km/h 3.2 km/h 69% 0.0 mm 0 W/m2
06:27 -0.2 °C -5.2 °C 1027.8 hPa ENE 4.7 km/h 9.7 km/h 69% 0.0 mm 0 W/m2
06:32 -0.2 °C -5.2 °C 1027.8 hPa NNE 6.4 km/h 16.1 km/h 69% 0.0 mm 0 W/m2
06:37 -0.2 °C -5.2 °C 1028.1 hPa North 1.4 km/h 9.7 km/h 69% 0.0 mm 0 W/m2
06:42 -0.2 °C -5.2 °C 1027.8 hPa SSE 4.7 km/h 16.1 km/h 69% 0.0 mm 0 W/m2
06:47 -0.3 °C -5.3 °C 1027.8 hPa NW 4.7 km/h 4.8 km/h 69% 0.0 mm 0 W/m2
06:52 -0.3 °C -5.5 °C 1027.8 hPa ENE 3.2 km/h 16.1 km/h 68% 0.0 mm 0 W/m2
06:57 -0.4 °C -5.6 °C 1027.8 hPa ENE 3.2 km/h 3.2 km/h 68% 0.0 mm 0 W/m2
07:02 -0.4 °C -5.6 °C 1027.8 hPa ENE 1.4 km/h 17.7 km/h 68% 0.0 mm 0 W/m2
07:07 -0.6 °C -5.8 °C 1028.1 hPa NW 4.7 km/h 4.8 km/h 68% 0.0 mm 0 W/m2
07:13 -0.6 °C -5.8 °C 1028.1 hPa WSW 3.2 km/h 14.5 km/h 68% 0.0 mm 0 W/m2
07:18 -0.7 °C -5.9 °C 1028.1 hPa ENE 4.7 km/h 16.1 km/h 68% 0.0 mm 5 W/m2
07:23 -0.7 °C -6.1 °C 1028.1 hPa ENE 1.4 km/h 4.8 km/h 67% 0.0 mm 7 W/m2
07:28 -0.7 °C -6.1 °C 1028.5 hPa NE 7.9 km/h 16.1 km/h 67% 0.0 mm 9 W/m2
07:33 -0.7 °C -6.1 °C 1028.5 hPa SSE 1.4 km/h 12.9 km/h 67% 0.0 mm 11 W/m2
07:38 -0.7 °C -6.1 °C 1028.5 hPa NW 6.4 km/h 6.4 km/h 67% 0.0 mm 12 W/m2
07:43 -0.7 °C -6.1 °C 1028.5 hPa ESE 3.2 km/h 4.8 km/h 67% 0.0 mm 14 W/m2
07:48 -0.7 °C -6.1 °C 1028.5 hPa SSE 1.4 km/h 11.3 km/h 67% 0.0 mm 16 W/m2
07:53 -0.7 °C -6.3 °C 1028.5 hPa WNW 1.4 km/h 4.8 km/h 66% 0.0 mm 18 W/m2
07:58 -0.6 °C -6.2 °C 1028.5 hPa ENE 3.2 km/h 8 km/h 66% 0.0 mm 19 W/m2
08:03 -0.6 °C -6.4 °C 1028.5 hPa East 1.4 km/h 9.7 km/h 65% 0.0 mm 21 W/m2
08:08 -0.5 °C -6.3 °C 1028.8 hPa NE 7.9 km/h 22.5 km/h 65% 0.0 mm 21 W/m2
08:13 -0.4 °C -6.2 °C 1028.8 hPa ESE 7.9 km/h 14.5 km/h 65% 0.0 mm 23 W/m2
08:18 -0.4 °C -6.4 °C 1028.8 hPa East 22.5 km/h 22.5 km/h 64% 0.0 mm 25 W/m2
08:23 -0.4 °C -6.4 °C 1028.8 hPa North 13 km/h 14.5 km/h 64% 0.0 mm 54 W/m2
08:28 -0.3 °C -6.3 °C 1028.8 hPa ENE 9.7 km/h 16.1 km/h 64% 0.0 mm 153 W/m2
08:33 -0.2 °C -6.4 °C 1028.8 hPa ENE 13 km/h 19.3 km/h 63% 0.0 mm 163 W/m2
08:38 -0.1 °C -6.5 °C 1028.8 hPa WNW 6.4 km/h 11.3 km/h 62% 0.0 mm 176 W/m2
08:43 0.1 °C -6.3 °C 1028.8 hPa ESE 4.7 km/h 16.1 km/h 62% 0.0 mm 190 W/m2
08:48 0.2 °C -6.4 °C 1028.8 hPa East 3.2 km/h 14.5 km/h 61% 0.0 mm 204 W/m2
08:53 0.3 °C -6.3 °C 1028.8 hPa NNW 4.7 km/h 12.9 km/h 61% 0.0 mm 216 W/m2
08:58 0.4 °C -6.7 °C 1028.8 hPa East 3.2 km/h 9.7 km/h 59% 0.0 mm 227 W/m2
09:03 0.4 °C -6.7 °C 1028.8 hPa NE 4.7 km/h 8 km/h 59% 0.0 mm 243 W/m2
09:08 0.6 °C -6.7 °C 1028.8 hPa ENE 4.7 km/h 16.1 km/h 58% 0.0 mm 257 W/m2
09:13 0.7 °C -6.4 °C 1028.8 hPa North 4.7 km/h 8 km/h 59% 0.0 mm 271 W/m2
09:18 0.8 °C -6.5 °C 1028.8 hPa East 6.4 km/h 16.1 km/h 58% 0.0 mm 283 W/m2
09:23 0.9 °C -6.7 °C 1028.8 hPa ENE 14.3 km/h 14.5 km/h 57% 0.0 mm 297 W/m2
Juneau County Weather
Compliments of Weather Underground - 2 mb